DMSP 5D-2 F13 DEB

Satellite information

Favourite Embed

Satellite Type and Status

DEBRISIN ORBIT

Key statistics

Satellite DMSP 5D-2 F13 DEB at a glance.

Uptime

11117

Days in orbit

Revolutions

≈ 14.2

Per day

Orbit

SSO

Sun Synchronous Orbit

Inclination

98.8

Latest

Satellite identification and parameters

Extended collection of information and parameters for DMSP 5D-2 F13 DEB.

Object identification

Identified? True

Debris? True

Object name: DMSP 5D-2 F13 DEB

International designator: 1995-015X

Object number (NORAD): 40410

Object ID (CCSDS): 40410

Country: UNITED STATES OF AMERICA (US)

Current information (Y/N): Y

RCS size: SMALL

Orbital parameters

Period: 101.101 minutes

Inclination: 98.8218 deg

SMA: 7188.944 km

Apoapsis: 823.132 km

Periapsis: 798.486 km

RAAN: 261.5015 deg

Eccentricy: 0.00171416

Argument of periapsis: 355.5959 deg

Mean anomaly: 4.5066 deg

Mean motion: 14.2431198 rev/day

Mean motion (dot): 0.00002747 rev/day2

B* drag term: 0.0012066824 1/REarth

Two-line elements (TLE)

Creation date: Aug. 30, 2025, 3:38 a.m.

Reference frame: TEME

Reference center: EARTH

Epoch: Aug. 29, 2025, 1:29 p.m. UTC

TLE line 0: 0 DMSP 5D-2 F13 DEB

TLE line 1: 1 40410U 95015X 25241.56235142 .00002747 00000-0 12067-2 0 9999

TLE line 2: 2 40410 98.8218 261.5015 0017142 355.5959 4.5066 14.24311980543133

Live tracking on map

Real-time ground track for satellite DMSP 5D-2 F13 DEB.

In-orbit conjunctions

A list of the most updated potential collisions computed for object DMSP 5D-2 F13 DEB.

Target Orbit TCA Probability of collision Miss distance Type
CZ-6A DEB LEO 2025-08-19 14:32:14 0.0002437341 167.0 (m) DEBRIS
CZ-6A R/B LEO 2025-02-05 08:17:28 0.0005729979 224.0 (m) ROCKET BODY
METEOR 2-7 LEO 2024-12-13 19:43:27 0.0001197502 518.0 (m) PAYLOAD
COSMOS 970 DEB LEO 2024-11-13 08:46:52 0.0001222891 78.0 (m) DEBRIS

Associated space launch

Military meteorological satellite

DMSP 5D-2 F13 DEB was lifted into orbit during the mission ‘Atlas E | DMSP-5D2 F13’, on board a Atlas E space rocket.

The launch took place on March 24, 1995, 2:05 p.m. from Space Launch Complex 3W.

For more information about the launch, click the button.

Launch to space Atlas E | DMSP-5D2 F13
Atlas E | DMSP-5D2 F13

Agency: N/A

Status: Launch Successful

Launch date: March 24, 1995, 2:05 p.m. UTC

Rocket: Atlas E

Launch pad: Space Launch Complex 3W

Location: Vandenberg SFB, CA, USA

...

Latest news about this satellite

There are no fresh news available about this satellite. Check back as we update our databases every day.


Newsletter sign-up

Weekly statistics, charts and insights to help you stay on top of the space industry.